Home > Weather > Barcelona > Past weeks

Flag for Spain Past Weather in Barcelona, Barcelona, Spain — Yesterday and Last 2 Weeks

Now
77 °F

Passing clouds.


Feels Like: 78 °F
Forecast: 71 / 80 °F
Wind: 2 mph from East

Location: Barcelona Airport

Current Time: Aug 29, 2016 at 4:11:06 AM

Latest Report: Aug 29, 2016 at 3:30 AM


Visibility: N/A

Pressure: 30.09 "Hg

Humidity: 89%

Dew Point: 73 °F

Location of BarcelonaLocation

Past Weather in Barcelona — Graph

°F

Barcelona Temperature Yesterday

Maximum temperature yesterday: 82 °F (at 11:30 AM)
Minimum temperature yesterday: 72 °F (at 7:00 AM)
Average temperature yesterday: 78 °F

High & Low Weather Summary for the Past Weeks

 TemperatureHumidityPressure
High86 °F (Aug 25, 11:30 AM)89% (Aug 17, 4:30 AM)30.21 "Hg (Aug 17, 4:30 AM)
Low66 °F (Aug 14, 7:00 AM)27% (Aug 25, 11:30 AM)29.83 "Hg (Aug 19, 3:00 PM)
Average77 °F70%30.05 "Hg
* Reported Aug 14 3:00 AM — Aug 29 3:00 AM, Barcelona, Weather by CustomWeather, © 2016

Note: Actual official high and low records may vary slightly from our data, if they occured in-between our weather recording intervals... More about our weather records

Advertising

Barcelona Weather History for the Previous 24 Hours

Scroll right to see more
 ConditionsComfort  
Time TempWeatherWind HumidityBarometerVisibility
3:00 AM
Mon, Aug 29
77 °FPassing clouds.No wind89%30.09 "HgN/A
2:30 AM79 °FPassing clouds.2 mph84%30.09 "HgN/A
2:00 AM79 °FPassing clouds.2 mph84%30.09 "HgN/A
1:30 AM79 °FPassing clouds.3 mph84%30.09 "HgN/A
1:00 AM79 °FPassing clouds.2 mph84%30.09 "HgN/A
12:30 AM79 °FPassing clouds.3 mph84%30.09 "HgN/A
12:00 AM79 °FPassing clouds.5 mph79%30.09 "HgN/A
11:30 PM
Sun, Aug 28
79 °FPassing clouds.2 mph79%30.09 "HgN/A
11:00 PM79 °FPassing clouds.2 mph79%30.09 "HgN/A
10:30 PM79 °FPassing clouds.5 mph79%30.09 "HgN/A
10:00 PM79 °FPassing clouds.3 mph79%30.09 "HgN/A
9:30 PM79 °FPassing clouds.6 mph79%30.09 "HgN/A
9:00 PM79 °FPassing clouds.9 mph79%30.07 "HgN/A
8:30 PM79 °FPassing clouds.10 mph79%30.07 "HgN/A
8:00 PM81 °FPassing clouds.12 mph79%30.04 "HgN/A
7:30 PM81 °FPassing clouds.12 mph74%30.04 "HgN/A
7:00 PM81 °FPassing clouds.13 mph74%30.04 "HgN/A
6:30 PM82 °FPassing clouds.14 mph70%30.07 "HgN/A
6:00 PM82 °FPassing clouds.13 mph70%30.07 "HgN/A
5:30 PM82 °FPassing clouds.13 mph70%30.07 "HgN/A
5:00 PM82 °FPassing clouds.13 mph70%30.07 "HgN/A
4:30 PM82 °FPassing clouds.13 mph70%30.07 "HgN/A
4:00 PM82 °FPassing clouds.14 mph70%30.07 "HgN/A
3:30 PM82 °FPassing clouds.15 mph70%30.07 "HgN/A
3:00 PM82 °FPassing clouds.14 mph70%30.09 "HgN/A
2:30 PM82 °FPassing clouds.13 mph70%30.09 "HgN/A
2:00 PM82 °FPassing clouds.13 mph66%30.09 "HgN/A
1:30 PM82 °FPassing clouds.13 mph70%30.09 "HgN/A
1:00 PM82 °FPassing clouds.13 mph70%30.09 "HgN/A
12:30 PM82 °FPassing clouds.14 mph66%30.12 "HgN/A
12:00 PM82 °FPassing clouds.13 mph66%30.12 "HgN/A
11:30 AM82 °FPassing clouds.12 mph70%30.12 "HgN/A
11:00 AM81 °FScattered clouds.9 mph74%30.12 "HgN/A
10:30 AM81 °FPassing clouds.5 mph74%30.12 "HgN/A
10:00 AM79 °FPassing clouds.5 mph70%30.12 "HgN/A
9:30 AM77 °FScattered clouds.6 mph65%30.09 "HgN/A
9:00 AM75 °FScattered clouds.7 mph69%30.09 "HgN/A
8:30 AM73 °FScattered clouds.6 mph74%30.09 "HgN/A
8:00 AM73 °FPassing clouds.7 mph78%30.09 "HgN/A
7:30 AM72 °FPassing clouds.7 mph83%30.09 "HgN/A
7:00 AM72 °FPassing clouds.3 mph88%30.09 "HgN/A
6:30 AM73 °FPassing clouds.3 mph83%30.07 "HgN/A
6:00 AM73 °FPassing clouds.6 mph83%30.07 "HgN/A
5:30 AM73 °FPassing clouds.3 mph83%30.07 "HgN/A
5:00 AM73 °FPassing clouds.3 mph83%30.09 "HgN/A
4:30 AM73 °FPassing clouds.5 mph83%30.09 "HgN/A
4:00 AM73 °FPassing clouds.1 mph83%30.09 "HgN/A
Weather by CustomWeather, © 2016

See weather overviewHow to use our weather pages